Wind_Speed
26 32 33 33 32 30 30 31 32 31 32 33 32 35 39 44 46 49 54 55 55 56 57 58 60 61 60 61 63 62 61 61 62 60 57 57 57 54 58 60 59 56 53 55
27 31 33 34 32 32 34 36 37 36 35 39 40 38 39 44 46 48 50 52 52 53 55 56 58 60 59 59 59 60 61 60 62 62 59 59 55 60 59 58 63 61 60 58
29 32 32 34 34 34 35 38 39 39 37 37 41 41 42 45 48 48 48 46 46 45 44 49 56 61 60 60 59 59 59 60 61 60 60 61 61 58 60 60 61 66 63 63
36 37 32 32 36 37 38 38 39 39 41 41 44 49 47 47 49 51 46 35 35 34 35 37 40 45 53 61 62 61 59 58 60 63 63 64 64 65 60 62 62 66 69 67
40 39 35 33 34 36 38 39 40 41 42 45 44 47 48 42 42 41 36 32 32 33 36 35 35 34 33 42 45 52 53 49 48 55 62 65 67 68 69 67 66 66 70 71
42 41 38 36 34 36 38 41 42 42 46 49 49 47 40 42 39 34 33 32 31 30 30 29 34 31 29 27 31 32 38 38 38 38 42 47 54 60 66 71 70 71 71 73
42 40 38 35 32 34 38 42 44 45 47 49 49 47 40 39 27 28 30 32 29 34 35 31 29 25 30 29 29 29 30 35 38 39 40 39 40 43 49 62 70 75 73 75
41 37 36 34 31 34 37 39 41 47 49 51 45 45 39 30 25 34 25 27 32 33 34 32 29 21 32 36 33 33 32 33 36 38 41 42 42 39 38 43 60 70 77 72
40 36 35 36 34 34 39 40 42 45 47 50 46 40 35 28 25 31 29 25 26 27 29 34 30 27 29 29 33 35 34 34 35 33 35 40 44 46 42 41 44 57 72 77
40 38 37 38 34 34 39 42 43 43 45 50 44 40 31 30 26 29 29 31 28 27 30 32 36 35 33 32 32 35 36 31 31 31 31 29 32 44 42 42 43 48 57 67
39 39 40 41 36 37 41 44 43 42 42 48 45 40 34 32 35 34 30 33 28 29 30 34 35 37 38 36 35 34 34 31 36 45 44 43 40 45 42 42 42 41 44 55
40 43 44 44 42 41 43 44 44 43 41 42 42 44 37 40 39 40 35 30 32 29 29 30 37 40 41 41 43 43 44 45 41 42 42 43 40 38 35 34 37 37 39 45
43 47 48 49 49 50 50 47 46 45 41 39 43 45 43 41 44 42 43 38 35 33 35 35 35 32 36 39 46 50 48 46 43 40 39 39 35 31 34 34 38 36 34 39
46 49 49 53 50 50 50 46 43 43 42 44 48 46 43 41 45 40 41 40 36 37 41 41 41 37 35 37 40 42 43 44 43 37 33 35 36 38 35 32 28 32 33 32
47 50 50 54 51 52 52 47 41 42 42 46 44 48 47 45 43 37 37 35 36 39 41 41 38 37 36 36 39 38 37 39 43 41 37 34 37 32 29 30 20 26 28 24
48 51 55 56 53 54 52 41 38 38 41 43 45 45 43 41 40 36 36 38 40 42 43 44 41 39 36 36 33 31 31 30 30 35 37 36 34 29 29 31 26 25 25 26
52 55 56 57 55 53 46 40 35 34 37 40 39 39 40 37 33 33 34 39 41 43 45 42 41 41 38 33 31 32 27 27 27 28 35 38 36 32 29 29 26 23 26 29
53 56 59 56 53 51 41 36 36 35 35 34 34 36 37 37 26 29 36 43 41 43 42 41 41 41 36 32 33 32 27 26 28 26 30 36 41 32 28 23 24 22 22 32
55 54 52 51 49 44 29 33 35 34 27 30 30 31 35 39 34 20 40 41 43 43 41 40 37 38 28 29 30 27 26 24 25 30 26 30 43 41 34 29 30 21 27 24
52 50 48 45 42 37 34 32 34 34 29 26 30 31 35 37 38 21 31 37 39 41 42 41 38 30 27 29 31 29 28 28 25 22 31 28 38 44 35 34 30 23 20 28
50 46 41 37 35 32 32 32 27 26 32 33 37 38 37 37 46 39 35 34 39 42 41 38 33 24 24 28 31 28 27 30 34 26 32 30 34 42 37 35 29 26 21 26
46 43 40 32 28 29 26 24 26 33 35 40 39 39 40 43 43 42 41 43 45 43 35 31 25 24 24 26 28 29 26 31 34 31 31 32 35 42 38 34 28 23 17 26
35 36 33 28 24 27 27 28 33 40 42 39 39 39 44 44 38 38 40 39 35 31 20 20 21 23 23 26 26 26 32 34 33 32 32 32 42 42 39 35 27 21 20 35
31 32 28 25 23 26 28 31 38 40 39 39 41 42 41 39 41 38 35 32 23 14 16 17 22 22 25 27 26 28 30 32 33 34 37 35 47 42 39 34 28 26 25 27
28 27 26 23 24 28 30 36 38 37 38 38 38 38 42 42 33 32 26 17 10 10 13 15 20 24 24 21 19 15 18 23 30 36 37 45 48 42 39 32 24 23 19 36
24 23 24 24 27 31 33 37 41 39 40 40 36 41 39 34 29 21 21 10 8 10 14 20 25 20 21 21 15 14 20 25 32 42 38 50 46 42 36 33 26 24 35 41
Wind_Direction
320 316 320 315 312 307 301 296 292 292 293 289 287 283 290 289 283 280 277 275 274 272 268 266 263 262 261 258 255 251 250 250 252 250 247 251 250 247 243 241 243 243 240 240
323 317 318 312 312 306 304 301 301 303 305 302 299 296 292 289 286 282 283 284 279 273 270 268 266 263 261 261 259 256 253 250 251 250 248 246 247 247 244 242 240 241 243 241
322 316 312 308 305 302 302 300 300 302 301 300 299 299 295 295 295 295 294 292 287 280 272 266 263 259 257 256 256 256 255 255 253 251 251 251 252 249 245 243 242 241 241 242
321 318 312 305 303 303 300 298 298 300 303 305 308 306 305 304 302 299 297 295 284 284 282 279 272 262 255 250 250 250 251 253 255 255 253 251 251 251 247 241 239 236 238 240
318 314 312 310 306 302 298 298 300 302 305 308 309 304 305 310 302 298 297 298 289 280 283 282 273 265 258 251 244 247 248 248 250 253 254 251 247 248 247 243 237 238 234 236
314 313 314 313 308 302 301 300 301 303 306 306 307 306 309 307 301 289 278 283 286 282 287 277 278 265 257 243 245 234 231 234 242 249 252 253 249 245 241 243 240 236 232 232
310 311 310 309 307 304 301 300 301 304 305 307 310 307 311 308 299 289 283 277 281 280 279 274 282 254 253 240 243 244 238 239 235 243 248 255 258 254 245 240 240 239 234 229
310 309 310 311 310 307 301 300 300 304 307 308 308 309 310 308 302 299 301 288 281 280 277 272 275 243 250 242 255 250 247 236 241 250 251 253 257 260 259 247 243 242 238 231
306 307 310 311 310 305 301 299 302 303 304 305 307 307 307 319 314 305 290 303 292 283 269 270 270 269 265 253 251 249 255 253 253 254 258 259 260 257 261 254 245 245 244 239
304 305 311 311 309 306 302 303 303 304 303 302 308 305 312 317 302 299 285 283 295 285 283 269 266 264 263 261 261 257 252 253 239 237 254 262 273 266 257 249 250 246 245 243
303 307 314 314 313 308 305 305 303 302 302 301 307 304 320 309 302 296 290 283 286 290 288 275 271 266 268 266 260 258 260 261 252 255 265 267 267 263 250 251 256 250 245 245
303 308 312 315 313 308 306 305 304 301 301 299 301 300 312 304 303 301 296 279 290 294 300 285 270 269 270 269 265 262 267 270 263 257 261 263 271 252 238 249 253 261 260 248
306 310 313 314 314 312 308 308 304 301 299 297 292 296 301 301 297 302 298 290 294 294 300 296 290 280 270 264 262 264 267 267 264 255 257 257 251 239 248 259 249 256 248 249
307 310 313 310 310 306 303 303 304 296 291 295 290 296 291 295 293 293 289 293 290 294 298 301 297 292 284 279 272 269 267 264 261 258 254 247 248 246 248 243 242 251 243 241
307 308 307 308 310 306 305 308 302 293 294 288 291 291 298 295 295 292 286 287 285 289 291 294 289 286 287 278 275 268 267 266 259 254 248 243 246 240 234 236 243 258 256 246
308 309 308 310 310 307 305 309 299 295 290 290 291 293 292 295 293 293 290 287 288 293 297 295 296 293 289 285 271 266 269 268 264 251 240 234 240 232 234 238 250 250 249 235
311 309 309 313 313 310 315 309 303 296 296 293 292 294 297 296 299 295 290 285 287 291 294 296 295 294 288 276 265 265 263 266 262 255 237 227 225 233 231 226 239 258 244 240
313 313 313 314 313 313 314 311 305 298 295 295 299 297 299 301 301 296 292 289 290 291 293 291 292 289 285 258 257 261 255 251 252 250 244 227 217 219 214 227 240 241 236 222
313 313 311 311 312 318 318 307 303 300 301 301 295 297 298 297 298 295 295 296 295 293 291 292 290 287 275 242 245 247 250 249 247 247 244 228 213 207 216 227 236 226 209 211
314 314 312 312 316 319 315 305 303 305 311 304 300 302 304 301 299 297 290 290 292 296 296 295 296 284 262 241 241 246 250 258 254 258 238 227 212 209 209 218 220 223 215 205
315 313 311 317 318 323 311 313 310 310 315 315 312 310 307 305 307 309 305 300 297 297 296 289 288 278 261 248 252 249 242 252 258 250 238 224 208 201 202 206 208 219 212 189
314 313 314 320 324 315 330 328 320 319 320 317 312 310 306 308 308 308 311 306 301 298 293 285 278 270 257 264 257 247 242 247 255 250 234 216 199 190 196 197 201 202 191 179
312 305 315 315 320 311 322 319 320 317 317 314 311 309 309 309 315 315 307 300 299 302 289 283 277 269 267 269 264 255 247 238 239 239 215 205 187 186 191 191 192 188 166 177
304 305 308 306 308 312 318 321 320 319 317 314 313 314 311 320 317 312 310 312 309 300 293 283 280 278 275 269 271 260 250 238 226 217 191 192 180 185 183 187 182 181 168 173
300 309 310 313 316 314 321 323 323 321 318 319 316 316 325 320 320 319 326 327 314 301 302 297 294 296 290 275 261 243 228 205 199 183 181 179 178 178 179 182 173 168 169 171
304 307 309 317 315 319 326 326 324 325 327 322 323 328 325 326 327 325 326 325 309 327 325 322 318 303 292 278 241 220 207 187 169 169 174 173 175 173 172 175 167 180 179 167
Height
5814 5808 5803 5799 5795 5791 5788 5784 5780 5780 5778 5776 5774 5772 5768 5762 5760 5756 5752 5753 5755 5753 5753 5752 5752 5753 5755 5757 5760 5763 5767 5770 5770 5776 5780 5785 5791 5795 5800 5803 5807 5813 5818 5825
5810 5801 5796 5792 5788 5783 5778 5774 5771 5769 5767 5763 5761 5761 5757 5749 5745 5744 5742 5740 5740 5740 5738 5737 5736 5737 5740 5739 5741 5746 5750 5753 5756 5759 5764 5768 5774 5780 5786 5790 5794 5799 5805 5809
5802 5797 5790 5785 5781 5776 5773 5767 5763 5760 5759 5758 5751 5750 5746 5739 5731 5730 5730 5727 5724 5723 5721 5719 5719 5719 5722 5725 5726 5727 5731 5734 5739 5743 5748 5753 5757 5765 5771 5778 5782 5787 5792 5797
5795 5790 5786 5780 5775 5770 5765 5760 5756 5753 5749 5745 5742 5734 5734 5728 5720 5715 5715 5714 5710 5708 5706 5705 5704 5701 5702 5706 5710 5713 5716 5719 5722 5726 5732 5738 5743 5748 5757 5762 5768 5772 5778 5783
5788 5782 5777 5774 5769 5763 5758 5753 5750 5746 5741 5736 5734 5728 5725 5716 5709 5706 5704 5702 5700 5698 5696 5694 5692 5690 5688 5689 5692 5696 5702 5704 5705 5707 5711 5717 5725 5731 5735 5742 5750 5756 5764 5770
5778 5772 5770 5766 5761 5755 5750 5745 5741 5737 5732 5728 5723 5717 5719 5706 5702 5698 5696 5694 5692 5689 5687 5685 5683 5682 5681 5680 5684 5685 5687 5691 5694 5696 5698 5700 5704 5711 5715 5722 5730 5738 5746 5753
5771 5765 5762 5758 5753 5748 5742 5737 5732 5729 5725 5719 5712 5706 5706 5699 5693 5690 5688 5686 5684 5681 5680 5678 5676 5674 5676 5675 5675 5677 5679 5682 5685 5687 5689 5692 5694 5695 5699 5704 5709 5715 5725 5734
5763 5760 5755 5751 5746 5741 5735 5730 5725 5717 5713 5708 5706 5699 5697 5692 5688 5681 5679 5677 5675 5672 5670 5670 5669 5668 5667 5668 5669 5671 5673 5675 5677 5680 5681 5682 5683 5685 5688 5691 5695 5698 5703 5715
5754 5752 5748 5742 5738 5734 5727 5722 5717 5709 5705 5697 5696 5693 5690 5685 5681 5675 5672 5670 5666 5663 5661 5661 5661 5661 5661 5661 5661 5663 5665 5667 5669 5671 5671 5672 5674 5676 5678 5680 5682 5686 5689 5702
5747 5742 5741 5736 5731 5726 5719 5714 5708 5701 5693 5685 5684 5680 5681 5676 5672 5669 5665 5662 5659 5657 5654 5652 5651 5653 5654 5653 5653 5654 5655 5658 5660 5662 5663 5664 5665 5665 5668 5669 5671 5676 5681 5686
5739 5736 5734 5728 5723 5718 5710 5703 5697 5693 5687 5676 5671 5669 5673 5668 5662 5659 5658 5654 5650 5648 5646 5643 5642 5643 5643 5644 5644 5645 5647 5648 5652 5653 5653 5654 5655 5654 5657 5660 5662 5665 5668 5672
5731 5727 5723 5720 5714 5708 5701 5694 5688 5681 5678 5671 5664 5655 5664 5658 5652 5648 5647 5643 5641 5639 5637 5634 5632 5633 5633 5633 5633 5634 5635 5636 5640 5641 5643 5642 5643 5641 5647 5650 5653 5654 5658 5660
5722 5717 5712 5708 5704 5696 5689 5684 5677 5671 5666 5663 5656 5650 5652 5649 5641 5639 5631 5631 5629 5627 5625 5623 5622 5622 5622 5622 5620 5621 5622 5623 5625 5628 5630 5631 5634 5636 5639 5640 5644 5645 5648 5651
5713 5708 5704 5696 5693 5686 5680 5674 5669 5661 5655 5652 5645 5640 5641 5640 5632 5630 5624 5620 5618 5616 5613 5611 5608 5608 5608 5608 5606 5606 5607 5609 5611 5616 5619 5622 5624 5628 5632 5633 5634 5637 5638 5641
5706 5700 5694 5687 5681 5673 5666 5665 5661 5651 5646 5637 5637 5631 5629 5624 5620 5619 5615 5612 5610 5607 5605 5601 5597 5596 5595 5594 5592 5592 5593 5593 5596 5601 5608 5613 5615 5619 5622 5625 5629 5628 5629 5634
5696 5690 5683 5678 5671 5662 5656 5654 5647 5644 5636 5630 5625 5621 5616 5613 5610 5608 5604 5600 5597 5594 5590 5587 5584 5582 5582 5581 5580 5581 5582 5584 5585 5588 5595 5601 5605 5611 5614 5617 5622 5625 5627 5632
5685 5677 5669 5665 5659 5650 5647 5641 5636 5631 5626 5620 5615 5611 5607 5603 5602 5598 5595 5588 5585 5582 5578 5575 5572 5569 5568 5569 5570 5571 5573 5574 5576 5578 5583 5591 5595 5602 5608 5613 5615 5617 5621 5624
5673 5664 5656 5652 5646 5641 5635 5629 5625 5620 5617 5612 5607 5601 5596 5592 5595 5590 5583 5574 5574 5570 5567 5564 5561 5558 5555 5556 5558 5561 5563 5564 5567 5570 5573 5580 5587 5594 5601 5604 5607 5610 5613 5620
5662 5654 5646 5639 5635 5630 5627 5620 5614 5610 5612 5604 5598 5594 5590 5583 5584 5587 5571 5567 5559 5556 5554 5551 5549 5545 5543 5545 5548 5551 5553 5556 5558 5560 5565 5570 5578 5586 5595 5600 5603 5607 5611 5615
5653 5642 5636 5631 5624 5619 5616 5611 5605 5601 5599 5595 5591 5587 5581 5575 5567 5573 5565 5559 5551 5544 5538 5536 5535 5533 5533 5535 5539 5542 5544 5547 5550 5552 5556 5562 5570 5580 5588 5594 5599 5602 5606 5610
5644 5636 5628 5623 5618 5615 5607 5603 5600 5596 5594 5587 5582 5576 5571 5565 5557 5553 5551 5547 5540 5533 5530 5526 5523 5523 5524 5526 5528 5532 5536 5538 5540 5545 5547 5556 5562 5573 5582 5589 5595 5598 5602 5608
5632 5627 5622 5618 5613 5607 5604 5599 5595 5592 5587 5578 5574 5567 5560 5555 5550 5541 5534 5527 5522 5519 5516 5512 5513 5514 5515 5516 5516 5520 5525 5527 5530 5535 5539 5549 5555 5567 5576 5585 5591 5595 5600 5606
5626 5620 5616 5613 5609 5603 5600 5594 5590 5583 5577 5571 5563 5559 5551 5544 5538 5532 5524 5517 5512 5507 5504 5504 5504 5505 5505 5505 5504 5507 5511 5514 5519 5524 5532 5542 5550 5563 5572 5582 5588 5593 5599 5605
5618 5614 5611 5607 5605 5600 5596 5591 5584 5577 5570 5564 5556 5548 5541 5534 5527 5521 5513 5506 5502 5500 5499 5497 5497 5495 5494 5492 5492 5491 5493 5497 5505 5512 5525 5536 5547 5559 5569 5579 5586 5592 5599 5606
5612 5608 5606 5604 5601 5596 5592 5585 5577 5572 5564 5556 5549 5540 5533 5525 5518 5510 5505 5500 5498 5497 5495 5492 5489 5486 5483 5480 5479 5481 5483 5487 5494 5508 5520 5532 5545 5557 5568 5578 5584 5592 5599 5606
5608 5605 5601 5598 5595 5590 5585 5578 5570 5563 5555 5548 5540 5534 5525 5516 5510 5505 5502 5499 5497 5495 5492 5487 5482 5478 5474 5470 5472 5475 5478 5484 5496 5508 5520 5533 5546 5559 5569 5577 5583 5590 5598 5606